| time (UTC) | temp F | wind direction | speed knots | gust knots | rain 1hr in | rain 24hr in | rain mn in | humidity % | barometer mb |
| 20260509013230 | 55 | 225 | 5.2 | 6.1 | 0.00 | 0.04 | 0.04 | 98 | 1010.3 |
| 20260509012727 | 55 | 225 | 6.1 | 7.8 | 0.00 | 0.04 | 0.04 | 98 | 1010.3 |
| 20260509012223 | 55 | 225 | 5.2 | 7.8 | 0.00 | 0.04 | 0.04 | 98 | 1010.3 |
| 20260509011721 | 55 | 226 | 5.2 | 7.0 | 0.00 | 0.04 | 0.04 | 98 | 1010.6 |
| 20260509011219 | 55 | 226 | 6.1 | 7.8 | 0.00 | 0.04 | 0.04 | 98 | 1010.3 |
| 20260509010716 | 55 | 226 | 4.3 | 6.1 | 0.00 | 0.04 | 0.04 | 98 | 1010.3 |
| 20260509010207 | 55 | 226 | 5.2 | 7.0 | 0.00 | 0.04 | 0.04 | 98 | 1010.3 |
| 20260509005705 | 55 | 225 | 5.2 | 7.0 | 0.00 | 0.04 | 0.04 | 97 | 1010.3 |
| 20260509005202 | 55 | 232 | 5.2 | 7.8 | 0.00 | 0.04 | 0.04 | 97 | 1010.3 |
| 20260509004701 | 55 | 234 | 5.2 | 7.8 | 0.00 | 0.04 | 0.04 | 96 | 1010.3 |
| 20260509004159 | 55 | 230 | 8.7 | 12.2 | 0.00 | 0.04 | 0.04 | 96 | 1010.3 |
| 20260509003658 | 55 | 225 | 7.8 | 9.6 | 0.00 | 0.04 | 0.04 | 96 | 1010.3 |
| 20260509003155 | 55 | 221 | 9.6 | 11.3 | 0.00 | 0.04 | 0.04 | 94 | 1010.3 |
| 20260509002652 | 55 | 217 | 8.7 | 10.4 | 0.00 | 0.04 | 0.04 | 94 | 1010.3 |
| 20260509002149 | 55 | 210 | 7.0 | 8.7 | 0.00 | 0.04 | 0.04 | 96 | 1010.3 |
| 20260509001647 | 55 | 201 | 7.0 | 9.6 | 0.00 | 0.04 | 0.04 | 99 | 1010.3 |
| 20260509001142 | 54 | 191 | 7.8 | 8.7 | 0.00 | 0.03 | 0.03 | 100 | 1010.3 |
| 20260509000641 | 54 | 178 | 7.8 | 8.7 | 0.00 | 0.03 | 0.03 | 100 | 1010.3 |
| 20260509000137 | 54 | 178 | 6.1 | 7.0 | 0.00 | 0.03 | 0.03 | 100 | 1010.3 |
| 20260508235635 | 54 | 178 | 5.2 | 7.0 | 0.00 | 0.03 | 0.03 | 100 | 1010.3 |
| 20260508235131 | 54 | 178 | 5.2 | 7.0 | 0.00 | 0.03 | 0.03 | 100 | 1010.3 |
| 20260508234629 | 55 | 187 | 4.3 | 6.1 | 0.00 | 0.03 | 0.03 | 100 | 1010.3 |
| 20260508234125 | 55 | 187 | 6.1 | 7.0 | 0.00 | 0.03 | 0.03 | 100 | 1010.3 |
| 20260508233624 | 55 | 195 | 4.3 | 5.2 | 0.00 | 0.03 | 0.03 | 99 | 1010.3 |
| 20260508233121 | 55 | 203 | 4.3 | 5.2 | 0.00 | 0.03 | 0.03 | 99 | 1010.3 |
| 20260508232618 | 55 | 228 | 4.3 | 5.2 | 0.00 | 0.03 | 0.03 | 98 | 1010.3 |
| 20260508232115 | 55 | 231 | 5.2 | 6.1 | 0.00 | 0.03 | 0.03 | 98 | 1010.6 |
| 20260508231613 | 55 | 226 | 5.2 | 6.1 | 0.00 | 0.03 | 0.03 | 98 | 1010.6 |
| 20260508231109 | 55 | 251 | 4.3 | 5.2 | 0.00 | 0.03 | 0.03 | 97 | 1010.6 |
| 20260508230606 | 55 | 255 | 3.5 | 4.3 | 0.00 | 0.02 | 0.02 | 96 | 1010.9 |
| 20260508225600 | 56 | 309 | 2.6 | 3.5 | 0.00 | 0.01 | 0.01 | 96 | 1010.6 |
| 20260508225057 | 56 | 309 | 2.6 | 3.5 | 0.00 | 0.01 | 0.01 | 95 | 1010.6 |
| 20260508224555 | 57 | 309 | 2.6 | 3.5 | 0.00 | 0.00 | 0.00 | 93 | 1010.6 |
| 20260508224052 | 57 | 309 | 3.5 | 4.3 | 0.00 | 0.00 | 0.00 | 92 | 1010.6 |
| 20260508223549 | 57 | 309 | 4.3 | 6.1 | 0.00 | 0.00 | 0.00 | 90 | 1010.6 |
| 20260508223046 | 57 | 309 | 3.5 | 4.3 | 0.00 | 0.00 | 0.00 | 88 | 1010.6 |
| 20260508222544 | 58 | 309 | 4.3 | 5.2 | 0.00 | 0.00 | 0.00 | 86 | 1010.3 |
| 20260508222041 | 58 | 302 | 3.5 | 5.2 | 0.00 | 0.00 | 0.00 | 84 | 1010.3 |
| 20260508221537 | 58 | 266 | 2.6 | 4.3 | 0.00 | 0.00 | 0.00 | 83 | 1010.3 |
| 20260508221032 | 59 | 294 | 5.2 | 7.8 | 0.00 | 0.00 | 0.00 | 80 | 1010.3 |
| 20260508220530 | 59 | 302 | 5.2 | 7.0 | 0.00 | 0.00 | 0.00 | 80 | 1010.3 |
| 20260508220026 | 59 | 289 | 4.3 | 5.2 | 0.00 | 0.00 | 0.00 | 78 | 1010.3 |
| 20260508215523 | 59 | 264 | 3.5 | 5.2 | 0.00 | 0.00 | 0.00 | 78 | 1010.3 |
| 20260508215020 | 59 | 272 | 5.2 | 7.0 | 0.00 | 0.00 | 0.00 | 77 | 1010.3 |
| 20260508214517 | 59 | 271 | 6.1 | 10.4 | 0.00 | 0.00 | 0.00 | 77 | 1010.3 |
| 20260508214013 | 60 | 274 | 3.5 | 6.1 | 0.00 | 0.00 | 0.00 | 76 | 1010.3 |
| 20260508213511 | 60 | 275 | 4.3 | 6.1 | 0.00 | 0.00 | 0.00 | 75 | 1010.3 |
| 20260508213006 | 60 | 266 | 6.1 | 9.6 | 0.00 | 0.00 | 0.00 | 76 | 1010.6 |
| 20260508212503 | 60 | 247 | 6.1 | 11.3 | 0.00 | 0.00 | 0.00 | 74 | 1010.6 |
| 20260508211959 | 61 | 246 | 8.7 | 10.4 | 0.00 | 0.00 | 0.00 | 74 | 1010.3 |
| 20260508211455 | 60 | 247 | 7.8 | 11.3 | 0.00 | 0.00 | 0.00 | 74 | 1010.3 |
| 20260508210952 | 60 | 255 | 6.1 | 8.7 | 0.00 | 0.00 | 0.00 | 74 | 1010.3 |
| 20260508210448 | 61 | 248 | 7.0 | 10.4 | 0.00 | 0.00 | 0.00 | 71 | 1010.6 |
| 20260508205944 | 61 | 260 | 7.8 | 12.2 | 0.00 | 0.00 | 0.00 | 69 | 1010.6 |
| 20260508205442 | 61 | 232 | 9.6 | 15.6 | 0.00 | 0.00 | 0.00 | 72 | 1010.3 |
| 20260508204938 | 61 | 234 | 11.3 | 13.9 | 0.00 | 0.00 | 0.00 | 72 | 1010.6 |
| 20260508204436 | 61 | 236 | 11.3 | 13.9 | 0.00 | 0.00 | 0.00 | 73 | 1010.3 |
| 20260508203931 | 61 | 230 | 11.3 | 14.8 | 0.00 | 0.00 | 0.00 | 74 | 1010.6 |
| 20260508203427 | 61 | 235 | 11.3 | 16.5 | 0.00 | 0.00 | 0.00 | 71 | 1010.6 |
| 20260508202923 | 62 | 242 | 9.6 | 13.0 | 0.00 | 0.00 | 0.00 | 68 | 1010.6 |
| 20260508202421 | 63 | 249 | 10.4 | 14.8 | 0.00 | 0.00 | 0.00 | 65 | 1010.6 |
| 20260508201918 | 63 | 249 | 11.3 | 15.6 | 0.00 | 0.00 | 0.00 | 65 | 1010.6 |
| 20260508201414 | 63 | 247 | 9.6 | 13.0 | 0.00 | 0.00 | 0.00 | 66 | 1010.6 |
| 20260508200911 | 63 | 238 | 14.8 | 20.0 | 0.00 | 0.00 | 0.00 | 64 | 1010.6 |
| 20260508200408 | 64 | 246 | 11.3 | 14.8 | 0.00 | 0.00 | 0.00 | 64 | 1010.6 |
| 20260508195858 | 64 | 244 | 11.3 | 18.2 | 0.00 | 0.00 | 0.00 | 63 | 1010.6 |
| 20260508195355 | 64 | 235 | 13.9 | 19.1 | 0.00 | 0.00 | 0.00 | 61 | 1010.6 |
| 20260508194851 | 65 | 233 | 16.5 | 20.0 | 0.00 | 0.00 | 0.00 | 60 | 1010.3 |
| 20260508194349 | 65 | 244 | 14.8 | 18.2 | 0.00 | 0.00 | 0.00 | 62 | 1010.3 |
| 20260508193846 | 65 | 221 | 15.6 | 18.2 | 0.00 | 0.00 | 0.00 | 61 | 1010.3 |
| 20260508193342 | 65 | 221 | 14.8 | 17.4 | 0.00 | 0.00 | 0.00 | 61 | 1010.3 |
| 20260508192838 | 66 | 224 | 14.8 | 18.2 | 0.00 | 0.00 | 0.00 | 60 | 1010.3 |
| 20260508192336 | 67 | 227 | 12.2 | 16.5 | 0.00 | 0.00 | 0.00 | 61 | 1010.3 |
| 20260508191833 | 66 | 225 | 15.6 | 19.1 | 0.00 | 0.00 | 0.00 | 59 | 1010.3 |
| 20260508191330 | 66 | 206 | 15.6 | 21.7 | 0.00 | 0.00 | 0.00 | 59 | 1010.3 |
| 20260508190827 | 66 | 216 | 13.0 | 16.5 | 0.00 | 0.00 | 0.00 | 58 | 1010.3 |
| 20260508190323 | 66 | 213 | 13.9 | 18.2 | 0.00 | 0.00 | 0.00 | 58 | 1010.6 |
| 20260508185820 | 67 | 203 | 18.2 | 24.3 | 0.00 | 0.00 | 0.00 | 58 | 1010.3 |
| 20260508185317 | 66 | 213 | 16.5 | 19.1 | 0.00 | 0.00 | 0.00 | 59 | 1010.6 |
| 20260508184814 | 66 | 221 | 16.5 | 22.6 | 0.00 | 0.00 | 0.00 | 59 | 1010.9 |
| 20260508184311 | 66 | 213 | 11.3 | 12.2 | 0.00 | 0.00 | 0.00 | 60 | 1010.9 |
| 20260508183808 | 66 | 217 | 16.5 | 19.1 | 0.00 | 0.00 | 0.00 | 59 | 1010.9 |
| 20260508183304 | 67 | 212 | 13.0 | 17.4 | 0.00 | 0.00 | 0.00 | 60 | 1010.6 |
| 20260508182755 | 66 | 212 | 14.8 | 17.4 | 0.00 | 0.00 | 0.00 | 59 | 1010.9 |
| 20260508182252 | 66 | 219 | 16.5 | 20.0 | 0.00 | 0.00 | 0.00 | 60 | 1010.9 |
| 20260508181748 | 66 | 206 | 13.0 | 17.4 | 0.00 | 0.00 | 0.00 | 58 | 1010.6 |
| 20260508181244 | 67 | 208 | 14.8 | 20.9 | 0.00 | 0.00 | 0.00 | 59 | 1010.6 |
| 20260508180742 | 67 | 216 | 13.0 | 16.5 | 0.00 | 0.00 | 0.00 | 60 | 1010.6 |
| 20260508180238 | 68 | 204 | 13.0 | 18.2 | 0.00 | 0.00 | 0.00 | 60 | 1010.6 |
| 20260508175735 | 67 | 222 | 15.6 | 19.1 | 0.00 | 0.00 | 0.00 | 60 | 1010.9 |
| 20260508175231 | 67 | 226 | 14.8 | 19.1 | 0.00 | 0.00 | 0.00 | 60 | 1010.9 |
| 20260508174729 | 68 | 213 | 15.6 | 20.0 | 0.00 | 0.00 | 0.00 | 60 | 1010.9 |
| 20260508174227 | 67 | 227 | 13.0 | 16.5 | 0.00 | 0.00 | 0.00 | 59 | 1010.9 |
| 20260508173722 | 67 | 217 | 15.6 | 20.0 | 0.00 | 0.00 | 0.00 | 61 | 1010.9 |
| 20260508173219 | 67 | 213 | 13.9 | 17.4 | 0.00 | 0.00 | 0.00 | 61 | 1011.3 |
| 20260508172716 | 66 | 210 | 14.8 | 18.2 | 0.00 | 0.00 | 0.00 | 61 | 1011.3 |
| 20260508172213 | 66 | 217 | 10.4 | 14.8 | 0.00 | 0.00 | 0.00 | 64 | 1011.6 |
| 20260508171709 | 64 | 219 | 8.7 | 11.3 | 0.00 | 0.00 | 0.00 | 64 | 1012.0 |
| 20260508171205 | 65 | 214 | 11.3 | 14.8 | 0.00 | 0.00 | 0.00 | 63 | 1012.0 |
| 20260508170702 | 66 | 220 | 12.2 | 13.9 | 0.00 | 0.00 | 0.00 | 63 | 1012.0 |
| 20260508170200 | 67 | 239 | 10.4 | 13.9 | 0.00 | 0.00 | 0.00 | 62 | 1012.0 |
| 20260508165656 | 66 | 217 | 7.8 | 10.4 | 0.00 | 0.00 | 0.00 | 62 | 1012.0 |
| 20260508165153 | 65 | 228 | 10.4 | 12.2 | 0.00 | 0.00 | 0.00 | 61 | 1012.0 |
| 20260508164650 | 65 | 248 | 8.7 | 11.3 | 0.00 | 0.00 | 0.00 | 63 | 1012.0 |
| 20260508164146 | 65 | 254 | 8.7 | 14.8 | 0.00 | 0.00 | 0.00 | 62 | 1012.3 |
| 20260508163644 | 65 | 242 | 8.7 | 12.2 | 0.00 | 0.00 | 0.00 | 63 | 1012.3 |
| 20260508163142 | 65 | 262 | 5.2 | 8.7 | 0.00 | 0.00 | 0.00 | 64 | 1012.6 |
| 20260508162637 | 64 | 248 | 4.3 | 7.8 | 0.00 | 0.00 | 0.00 | 63 | 1013.1 |
| 20260508162135 | 63 | 265 | 4.3 | 7.8 | 0.00 | 0.00 | 0.00 | 66 | 1013.1 |
| 20260508161632 | 63 | 263 | 5.2 | 9.6 | 0.00 | 0.00 | 0.00 | 63 | 1013.1 |
| 20260508161129 | 63 | 283 | 5.2 | 9.6 | 0.00 | 0.00 | 0.00 | 64 | 1013.1 |
| 20260508160627 | 62 | 238 | 7.8 | 10.4 | 0.00 | 0.00 | 0.00 | 66 | 1013.4 |
| 20260508160124 | 62 | 247 | 7.8 | 11.3 | 0.00 | 0.00 | 0.00 | 66 | 1013.4 |
| 20260508155621 | 61 | 258 | 5.2 | 8.7 | 0.00 | 0.00 | 0.00 | 65 | 1013.4 |
| 20260508155118 | 62 | 252 | 7.0 | 10.4 | 0.00 | 0.00 | 0.00 | 66 | 1013.4 |
| 20260508154615 | 62 | 262 | 5.2 | 7.0 | 0.00 | 0.00 | 0.00 | 64 | 1013.4 |
| 20260508154112 | 62 | 271 | 7.0 | 13.0 | 0.00 | 0.00 | 0.00 | 65 | 1013.4 |
| 20260508153609 | 61 | 278 | 7.0 | 12.2 | 0.00 | 0.00 | 0.00 | 65 | 1013.4 |
| 20260508153105 | 61 | 258 | 7.8 | 11.3 | 0.00 | 0.00 | 0.00 | 65 | 1013.4 |
| 20260508152602 | 61 | 247 | 7.0 | 11.3 | 0.00 | 0.00 | 0.00 | 67 | 1013.4 |
| 20260508152057 | 61 | 248 | 6.1 | 8.7 | 0.00 | 0.00 | 0.00 | 67 | 1013.4 |
| 20260508151554 | 60 | 249 | 6.1 | 9.6 | 0.00 | 0.00 | 0.00 | 68 | 1013.4 |
| 20260508151052 | 59 | 255 | 8.7 | 11.3 | 0.00 | 0.00 | 0.00 | 68 | 1013.4 |
| 20260508150549 | 59 | 233 | 8.7 | 12.2 | 0.00 | 0.00 | 0.00 | 67 | 1013.4 |
| 20260508150044 | 59 | 238 | 7.8 | 10.4 | 0.00 | 0.00 | 0.00 | 68 | 1013.7 |
| 20260508145541 | 59 | 244 | 7.8 | 13.0 | 0.00 | 0.00 | 0.00 | 69 | 1013.7 |
| 20260508145037 | 59 | 242 | 10.4 | 14.8 | 0.00 | 0.00 | 0.00 | 69 | 1013.7 |
| 20260508144535 | 59 | 232 | 12.2 | 15.6 | 0.00 | 0.00 | 0.00 | 68 | 1013.7 |
| 20260508144032 | 59 | 238 | 7.0 | 9.6 | 0.00 | 0.00 | 0.00 | 70 | 1013.7 |
| 20260508143530 | 58 | 242 | 7.8 | 9.6 | 0.00 | 0.00 | 0.00 | 69 | 1013.7 |
| 20260508143026 | 58 | 239 | 8.7 | 14.8 | 0.00 | 0.00 | 0.00 | 71 | 1013.7 |
| 20260508142524 | 57 | 238 | 10.4 | 13.0 | 0.00 | 0.00 | 0.00 | 70 | 1013.7 |
| 20260508142020 | 57 | 246 | 9.6 | 13.9 | 0.00 | 0.00 | 0.00 | 72 | 1013.7 |
| 20260508141516 | 55 | 225 | 10.4 | 13.0 | 0.00 | 0.00 | 0.00 | 73 | 1013.7 |
| 20260508141014 | 55 | 226 | 8.7 | 9.6 | 0.00 | 0.00 | 0.00 | 75 | 1014.1 |
| 20260508140511 | 54 | 239 | 7.8 | 9.6 | 0.00 | 0.00 | 0.00 | 76 | 1014.1 |
| 20260508140008 | 54 | 225 | 7.0 | 8.7 | 0.00 | 0.00 | 0.00 | 76 | 1014.1 |
| 20260508135503 | 53 | 213 | 7.0 | 8.7 | 0.00 | 0.00 | 0.00 | 77 | 1014.1 |
| 20260508135000 | 53 | 208 | 5.2 | 6.1 | 0.00 | 0.00 | 0.00 | 77 | 1014.1 |
| 20260508134456 | 53 | 208 | 6.1 | 7.8 | 0.00 | 0.00 | 0.00 | 78 | 1014.1 |
| 20260508133953 | 52 | 217 | 7.8 | 8.7 | 0.00 | 0.00 | 0.00 | 77 | 1014.1 |
| 20260508133451 | 52 | 213 | 6.1 | 7.8 | 0.00 | 0.00 | 0.00 | 79 | 1014.1 |
| 20260508132947 | 52 | 212 | 7.8 | 8.7 | 0.00 | 0.00 | 0.00 | 78 | 1014.1 |
| 20260508132446 | 52 | 228 | 7.0 | 7.8 | 0.00 | 0.00 | 0.00 | 79 | 1014.4 |
| 20260508131942 | 51 | 222 | 7.0 | 7.8 | 0.00 | 0.00 | 0.00 | 78 | 1014.1 |
| 20260508131437 | 51 | 213 | 6.1 | 7.8 | 0.00 | 0.00 | 0.00 | 79 | 1014.4 |
| 20260508130934 | 51 | 216 | 7.8 | 8.7 | 0.00 | 0.00 | 0.00 | 81 | 1014.1 |
| 20260508130431 | 51 | 216 | 7.0 | 8.7 | 0.00 | 0.00 | 0.00 | 80 | 1014.1 |
| 20260508125927 | 50 | 221 | 7.0 | 8.7 | 0.00 | 0.00 | 0.00 | 81 | 1014.4 |
| 20260508125423 | 50 | 233 | 6.1 | 7.0 | 0.00 | 0.00 | 0.00 | 82 | 1014.4 |
| 20260508124921 | 50 | 233 | 6.1 | 7.0 | 0.00 | 0.00 | 0.00 | 82 | 1014.4 |
| 20260508124419 | 50 | 233 | 6.1 | 7.8 | 0.00 | 0.00 | 0.00 | 83 | 1014.4 |
| 20260508123916 | 50 | 233 | 6.1 | 7.8 | 0.00 | 0.00 | 0.00 | 82 | 1014.4 |
| 20260508123415 | 50 | 238 | 6.1 | 7.8 | 0.00 | 0.00 | 0.00 | 83 | 1014.4 |
| 20260508122911 | 49 | 238 | 7.0 | 8.7 | 0.00 | 0.00 | 0.00 | 82 | 1014.4 |
| 20260508122408 | 49 | 233 | 7.8 | 9.6 | 0.00 | 0.00 | 0.00 | 82 | 1014.1 |
| 20260508121905 | 50 | 237 | 7.0 | 8.7 | 0.00 | 0.00 | 0.00 | 81 | 1014.1 |
| 20260508121403 | 50 | 237 | 6.1 | 7.8 | 0.00 | 0.00 | 0.00 | 80 | 1014.1 |
| 20260508120900 | 50 | 241 | 7.8 | 10.4 | 0.00 | 0.00 | 0.00 | 80 | 1014.4 |
| 20260508120358 | 49 | 238 | 7.8 | 9.6 | 0.00 | 0.00 | 0.00 | 82 | 1014.4 |
| 20260508115855 | 49 | 237 | 7.8 | 8.7 | 0.00 | 0.00 | 0.00 | 81 | 1014.1 |
| 20260508115353 | 49 | 238 | 7.8 | 9.6 | 0.00 | 0.00 | 0.00 | 81 | 1014.1 |
| 20260508114849 | 49 | 237 | 7.0 | 9.6 | 0.00 | 0.00 | 0.00 | 81 | 1014.1 |
| 20260508114346 | 49 | 232 | 9.6 | 11.3 | 0.00 | 0.00 | 0.00 | 81 | 1013.7 |
| 20260508113843 | 49 | 224 | 7.0 | 8.7 | 0.00 | 0.00 | 0.00 | 81 | 1013.7 |
| 20260508113341 | 49 | 231 | 8.7 | 11.3 | 0.00 | 0.00 | 0.00 | 79 | 1013.7 |
| 20260508112837 | 49 | 235 | 9.6 | 13.0 | 0.00 | 0.00 | 0.00 | 80 | 1013.7 |
| 20260508112335 | 49 | 247 | 7.0 | 8.7 | 0.00 | 0.00 | 0.00 | 80 | 1013.7 |
| 20260508111831 | 49 | 247 | 7.0 | 8.7 | 0.00 | 0.00 | 0.00 | 82 | 1013.7 |
| 20260508111328 | 48 | 247 | 5.2 | 7.0 | 0.00 | 0.00 | 0.00 | 85 | 1013.7 |
| 20260508110825 | 47 | 247 | 3.5 | 4.3 | 0.00 | 0.00 | 0.00 | 86 | 1013.7 |
| 20260508110323 | 47 | 247 | 3.5 | 3.5 | 0.00 | 0.00 | 0.00 | 87 | 1013.4 |
| 20260508105823 | 46 | 247 | 1.7 | 2.6 | 0.00 | 0.00 | 0.00 | 90 | 1013.4 |
| 20260508105319 | 46 | 247 | 1.7 | 2.6 | 0.00 | 0.00 | 0.00 | 90 | 1013.4 |
| 20260508104816 | 46 | 247 | 1.7 | 2.6 | 0.00 | 0.00 | 0.00 | 90 | 1013.4 |
| 20260508104313 | 46 | 247 | 0.0 | 1.7 | 0.00 | 0.00 | 0.00 | 89 | 1013.4 |
| 20260508103811 | 46 | 247 | 0.9 | 2.6 | 0.00 | 0.00 | 0.00 | 87 | 1013.4 |
| 20260508103307 | 46 | 247 | 2.6 | 3.5 | 0.00 | 0.00 | 0.00 | 86 | 1013.4 |
| 20260508102805 | 46 | 247 | 3.5 | 4.3 | 0.00 | 0.00 | 0.00 | 87 | 1013.1 |
| 20260508102306 | 46 | 247 | 2.6 | 3.5 | 0.00 | 0.00 | 0.00 | 86 | 1013.4 |
| 20260508101800 | 46 | 247 | 2.6 | 3.5 | 0.00 | 0.00 | 0.00 | 84 | 1013.1 |
| 20260508101257 | 47 | 247 | 4.3 | 6.1 | 0.00 | 0.00 | 0.00 | 82 | 1013.1 |
| 20260508100755 | 47 | 247 | 5.2 | 7.8 | 0.00 | 0.00 | 0.00 | 82 | 1013.1 |
| 20260508100253 | 47 | 247 | 4.3 | 5.2 | 0.00 | 0.00 | 0.00 | 82 | 1013.4 |
| 20260508095748 | 47 | 247 | 4.3 | 5.2 | 0.00 | 0.00 | 0.00 | 82 | 1013.1 |
| 20260508095246 | 47 | 247 | 4.3 | 6.1 | 0.00 | 0.00 | 0.00 | 81 | 1013.1 |
| 20260508094743 | 47 | 247 | 5.2 | 7.0 | 0.00 | 0.00 | 0.00 | 81 | 1013.1 |
| 20260508094240 | 47 | 247 | 6.1 | 7.8 | 0.00 | 0.00 | 0.00 | 80 | 1013.1 |
| 20260508093737 | 48 | 247 | 6.1 | 7.8 | 0.00 | 0.00 | 0.00 | 79 | 1013.1 |
| 20260508093235 | 48 | 246 | 7.0 | 8.7 | 0.00 | 0.00 | 0.00 | 79 | 1013.1 |
| 20260508092731 | 48 | 247 | 5.2 | 8.7 | 0.00 | 0.00 | 0.00 | 77 | 1013.1 |
| 20260508092230 | 48 | 251 | 3.5 | 6.1 | 0.00 | 0.00 | 0.00 | 77 | 1013.1 |
| 20260508091727 | 48 | 244 | 5.2 | 7.8 | 0.00 | 0.00 | 0.00 | 77 | 1013.1 |
| 20260508091224 | 48 | 246 | 6.1 | 8.7 | 0.00 | 0.00 | 0.00 | 78 | 1013.4 |
| 20260508090722 | 48 | 243 | 6.1 | 8.7 | 0.00 | 0.00 | 0.00 | 79 | 1013.4 |
| 20260508090219 | 48 | 238 | 5.2 | 7.0 | 0.00 | 0.00 | 0.00 | 79 | 1013.4 |
| 20260508085715 | 47 | 247 | 7.0 | 8.7 | 0.00 | 0.00 | 0.00 | 80 | 1013.4 |
| 20260508085213 | 47 | 238 | 6.1 | 7.8 | 0.00 | 0.00 | 0.00 | 81 | 1013.4 |
| 20260508084703 | 46 | 212 | 5.2 | 7.0 | 0.00 | 0.00 | 0.00 | 82 | 1013.4 |
| 20260508084201 | 46 | 212 | 5.2 | 6.1 | 0.00 | 0.00 | 0.00 | 82 | 1013.4 |
| 20260508083658 | 46 | 210 | 3.5 | 5.2 | 0.00 | 0.00 | 0.00 | 83 | 1013.4 |
| 20260508083155 | 46 | 210 | 4.3 | 5.2 | 0.00 | 0.00 | 0.00 | 83 | 1013.4 |
| 20260508082655 | 46 | 210 | 4.3 | 5.2 | 0.00 | 0.00 | 0.00 | 84 | 1013.4 |
| 20260508082153 | 46 | 210 | 5.2 | 5.2 | 0.00 | 0.00 | 0.00 | 83 | 1013.4 |
| 20260508081645 | 46 | 210 | 5.2 | 5.2 | 0.00 | 0.00 | 0.00 | 84 | 1013.4 |
| 20260508081142 | 45 | 210 | 5.2 | 6.1 | 0.00 | 0.00 | 0.00 | 84 | 1013.4 |
| 20260508080639 | 45 | 210 | 4.3 | 4.3 | 0.00 | 0.00 | 0.00 | 86 | 1013.4 |
| 20260508080137 | 44 | 210 | 3.5 | 4.3 | 0.00 | 0.00 | 0.00 | 86 | 1013.4 |
| 20260508075633 | 44 | 210 | 3.5 | 3.5 | 0.00 | 0.00 | 0.00 | 87 | 1013.4 |
| 20260508075130 | 45 | 210 | 1.7 | 2.6 | 0.00 | 0.00 | 0.00 | 86 | 1013.4 |
| 20260508074628 | 45 | 210 | 2.6 | 3.5 | 0.00 | 0.00 | 0.00 | 85 | 1013.4 |
| 20260508074124 | 45 | 210 | 3.5 | 4.3 | 0.00 | 0.00 | 0.00 | 86 | 1013.4 |
| 20260508073621 | 44 | 210 | 3.5 | 4.3 | 0.00 | 0.00 | 0.00 | 87 | 1013.4 |
| 20260508073119 | 44 | 210 | 2.6 | 3.5 | 0.00 | 0.00 | 0.00 | 89 | 1013.4 |
| 20260508072614 | 44 | 210 | 2.6 | 3.5 | 0.00 | 0.00 | 0.00 | 88 | 1013.7 |
| 20260508072112 | 45 | 210 | 1.7 | 2.6 | 0.00 | 0.00 | 0.00 | 86 | 1013.7 |
| 20260508071610 | 45 | 210 | 0.9 | 3.5 | 0.00 | 0.00 | 0.00 | 84 | 1013.7 |
| 20260508071108 | 45 | 210 | 1.7 | 3.5 | 0.00 | 0.00 | 0.00 | 85 | 1013.7 |
| 20260508070605 | 45 | 210 | 3.5 | 4.3 | 0.00 | 0.00 | 0.00 | 85 | 1013.7 |
| 20260508065600 | 47 | 210 | 4.3 | 5.2 | 0.00 | 0.00 | 0.00 | 81 | 1013.7 |
| 20260508065058 | 47 | 210 | 4.3 | 6.1 | 0.00 | 0.00 | 0.00 | 80 | 1013.7 |
| 20260508064555 | 46 | 204 | 5.2 | 6.1 | 0.00 | 0.00 | 0.00 | 82 | 1013.7 |
| 20260508064053 | 46 | 204 | 3.5 | 4.3 | 0.00 | 0.00 | 0.00 | 82 | 1013.7 |
| 20260508063550 | 46 | 204 | 3.5 | 4.3 | 0.00 | 0.00 | 0.00 | 83 | 1013.7 |
| 20260508063048 | 46 | 204 | 3.5 | 3.5 | 0.00 | 0.00 | 0.00 | 83 | 1013.7 |
| 20260508062545 | 46 | 204 | 3.5 | 4.3 | 0.00 | 0.00 | 0.00 | 84 | 1014.1 |
| 20260508062042 | 45 | 204 | 3.5 | 4.3 | 0.00 | 0.00 | 0.00 | 86 | 1013.7 |
| 20260508061540 | 45 | 204 | 3.5 | 3.5 | 0.00 | 0.00 | 0.00 | 87 | 1013.7 |
| 20260508061036 | 44 | 204 | 3.5 | 3.5 | 0.00 | 0.00 | 0.00 | 89 | 1013.7 |
| 20260508060533 | 44 | 204 | 0.9 | 2.6 | 0.00 | 0.00 | 0.00 | 90 | 1013.7 |
| 20260508060031 | 44 | 204 | 2.6 | 2.6 | 0.00 | 0.00 | 0.00 | 89 | 1013.7 |
| 20260508055526 | 44 | 204 | 0.9 | 2.6 | 0.00 | 0.00 | 0.00 | 88 | 1014.1 |
| 20260508055024 | 45 | 204 | 0.0 | 0.0 | 0.00 | 0.00 | 0.00 | 88 | 1014.1 |
| 20260508054520 | 45 | 204 | 0.0 | 0.0 | 0.00 | 0.00 | 0.00 | 86 | 1014.1 |
| 20260508054017 | 45 | 204 | 0.0 | 0.0 | 0.00 | 0.00 | 0.00 | 86 | 1014.1 |
| 20260508053514 | 46 | 204 | 0.0 | 0.0 | 0.00 | 0.00 | 0.00 | 85 | 1014.1 |
| 20260508053013 | 47 | 204 | 0.0 | 0.0 | 0.00 | 0.00 | 0.00 | 83 | 1014.1 |
| 20260508052509 | 48 | 204 | 0.0 | 0.0 | 0.00 | 0.00 | 0.00 | 78 | 1014.1 |
| 20260508052006 | 48 | 204 | 0.9 | 3.5 | 0.00 | 0.00 | 0.00 | 78 | 1014.4 |
| 20260508051502 | 49 | 204 | 0.9 | 3.5 | 0.00 | 0.00 | 0.00 | 77 | 1014.4 |
| 20260508050957 | 49 | 204 | 0.0 | 0.0 | 0.00 | 0.00 | 0.00 | 77 | 1014.4 |
| 20260508050454 | 49 | 204 | 0.0 | 0.0 | 0.00 | 0.00 | 0.00 | 78 | 1014.1 |
| 20260508045950 | 49 | 204 | 0.0 | 0.0 | 0.00 | 0.00 | 0.00 | 79 | 1014.4 |
| 20260508045448 | 49 | 204 | 0.0 | 0.0 | 0.00 | 0.00 | 0.00 | 79 | 1014.1 |
| 20260508044945 | 49 | 204 | 0.0 | 0.0 | 0.00 | 0.00 | 0.00 | 79 | 1014.1 |
| 20260508044442 | 49 | 204 | 0.0 | 0.0 | 0.00 | 0.00 | 0.00 | 79 | 1014.1 |
| 20260508043937 | 50 | 204 | 3.5 | 4.3 | 0.00 | 0.00 | 0.00 | 79 | 1014.1 |
| 20260508043435 | 50 | 204 | 6.1 | 8.7 | 0.00 | 0.00 | 0.00 | 77 | 1014.1 |
| 20260508042931 | 50 | 203 | 5.2 | 7.0 | 0.00 | 0.00 | 0.00 | 77 | 1014.1 |
| 20260508042429 | 50 | 203 | 6.1 | 7.8 | 0.00 | 0.00 | 0.00 | 79 | 1014.1 |
| 20260508041926 | 50 | 198 | 6.1 | 7.8 | 0.00 | 0.00 | 0.00 | 79 | 1014.1 |
| 20260508041422 | 50 | 194 | 5.2 | 6.1 | 0.00 | 0.00 | 0.00 | 79 | 1014.1 |
| 20260508040919 | 50 | 194 | 7.8 | 9.6 | 0.00 | 0.00 | 0.00 | 79 | 1013.7 |
| 20260508040416 | 50 | 194 | 7.8 | 8.7 | 0.00 | 0.00 | 0.00 | 79 | 1013.7 |
| 20260508035914 | 50 | 193 | 7.0 | 8.7 | 0.00 | 0.00 | 0.00 | 80 | 1014.1 |
| 20260508035406 | 50 | 193 | 5.2 | 6.1 | 0.00 | 0.00 | 0.00 | 80 | 1013.7 |
| 20260508034902 | 49 | 201 | 6.1 | 8.7 | 0.00 | 0.00 | 0.00 | 82 | 1013.7 |
| 20260508034400 | 49 | 233 | 3.5 | 4.3 | 0.00 | 0.00 | 0.00 | 83 | 1014.1 |
| 20260508033856 | 49 | 233 | 3.5 | 3.5 | 0.00 | 0.00 | 0.00 | 82 | 1013.7 |
| 20260508033354 | 49 | 233 | 3.5 | 4.3 | 0.00 | 0.00 | 0.00 | 84 | 1013.7 |
| 20260508032851 | 48 | 233 | 0.9 | 2.6 | 0.00 | 0.00 | 0.00 | 88 | 1013.7 |
| 20260508032348 | 48 | 233 | 0.9 | 2.6 | 0.00 | 0.00 | 0.00 | 90 | 1013.7 |
| 20260508031845 | 48 | 233 | 0.0 | 0.0 | 0.00 | 0.00 | 0.00 | 88 | 1014.1 |
| 20260508031342 | 48 | 233 | 2.6 | 3.5 | 0.00 | 0.00 | 0.00 | 87 | 1013.7 |
| 20260508030838 | 48 | 233 | 2.6 | 3.5 | 0.00 | 0.00 | 0.00 | 88 | 1014.1 |
| 20260508030335 | 48 | 233 | 2.6 | 3.5 | 0.00 | 0.00 | 0.00 | 86 | 1014.1 |
| 20260508025832 | 49 | 233 | 3.5 | 4.3 | 0.00 | 0.00 | 0.00 | 84 | 1014.1 |
| 20260508025329 | 49 | 233 | 3.5 | 5.2 | 0.00 | 0.00 | 0.00 | 84 | 1014.1 |
| 20260508024826 | 49 | 233 | 3.5 | 4.3 | 0.00 | 0.00 | 0.00 | 83 | 1014.4 |
| 20260508024322 | 49 | 233 | 3.5 | 4.3 | 0.00 | 0.00 | 0.00 | 83 | 1014.1 |
| 20260508023819 | 49 | 233 | 4.3 | 5.2 | 0.00 | 0.00 | 0.00 | 85 | 1014.1 |
| 20260508023316 | 48 | 233 | 3.5 | 3.5 | 0.00 | 0.00 | 0.00 | 89 | 1014.1 |
| 20260508022812 | 48 | 233 | 1.7 | 3.5 | 0.00 | 0.00 | 0.00 | 90 | 1014.1 |
| 20260508022309 | 48 | 258 | 0.0 | 0.0 | 0.00 | 0.00 | 0.00 | 88 | 1014.1 |
| 20260508021806 | 48 | 258 | 0.0 | 0.0 | 0.00 | 0.00 | 0.00 | 89 | 1014.1 |
| 20260508021301 | 48 | 258 | 0.0 | 0.9 | 0.00 | 0.00 | 0.00 | 89 | 1014.1 |
| 20260508020758 | 48 | 258 | 0.0 | 1.7 | 0.00 | 0.00 | 0.00 | 90 | 1014.1 |
| 20260508020256 | 48 | 258 | 0.0 | 0.0 | 0.00 | 0.00 | 0.00 | 89 | 1014.1 |
| 20260508015752 | 49 | 258 | 0.0 | 0.0 | 0.00 | 0.00 | 0.00 | 84 | 1014.1 |
| 20260508015250 | 49 | 258 | 1.7 | 2.6 | 0.00 | 0.00 | 0.00 | 84 | 1014.1 |
| 20260508014746 | 49 | 258 | 1.7 | 2.6 | 0.00 | 0.00 | 0.00 | 86 | 1014.1 |
| 20260508014243 | 49 | 258 | 0.0 | 0.0 | 0.00 | 0.00 | 0.00 | 87 | 1014.1 |
| 20260508013739 | 49 | 258 | 0.9 | 1.7 | 0.00 | 0.00 | 0.00 | 87 | 1013.7 |